Pittsfield, IL

2:35 AM CDT on March 28, 2017 (GMT -0500)
Pittsfield Penstone Municipal

Weather History for KPPQ - September, 2013

Change the Weather History Date:

Thursday, September 26, 2013

  Actual Average (KUIN) Record (KUIN)
Temperature  
Mean Temperature 70 °F -  
Max Temperature 84 °F 73 °F 91 °F (1953)
Min Temperature 56 °F 50 °F 32 °F (1928)
Cooling Degree Days 5    
Growing Degree Days 20 (Base 50)    
Moisture  
Dew Point 59 °F    
Average Humidity 70    
Maximum Humidity 92    
Minimum Humidity 41    
Precipitation  
Precipitation 0.00 in - - ()
Sea Level Pressure  
Sea Level Pressure 29.99 in    
Wind  
Wind Speed 2 mph (SE)    
Max Wind Speed 8 mph    
Max Gust Speed -    
Visibility 9 miles    
Events      
Averages and records for this station are not official NWS values.
T = Trace of Precipitation, MM = Missing Value Source: NWS Daily Summary

Daily Weather History Graph

Daily Weather History Graph

Search for Another Location

Airport or City:

Trip Planner

Search our weather history database for the weather conditions in past years. The results will help you decide how hot, cold, wet, or windy it might be!

Date:

Astronomy

Sep. 26, 2013 Rise Set
Actual Time 6:54 AM CDT 6:53 PM CDT
Civil Twilight 6:27 AM CDT 7:20 PM CDT
Nautical Twilight 5:56 AM CDT 7:51 PM CDT
Astronomical Twilight 5:24 AM CDT 8:23 PM CDT
Moon 11:52 PM CDT (9/26) 1:46 PM CDT (9/26)
Length of Visible Light 12h 52m
Length of Day
11h 58m
Waning Gibbous, 54% of the Moon is Illuminated
Sep 26
Waning Gibbous
Sep 26
Last Quarter
Oct 4
New
Oct 11
First Quarter
Oct 18
Full

Hourly Weather History & Observations

Time (CDT) Temp. Heat Index Dew Point Humidity Pressure Visibility Wind Dir Wind Speed Gust Speed Precip Events Conditions
12:15 AM 63.0 °F - 58.3 °F 85% 29.91 in 10.0 mi Calm Calm - N/A   Clear
12:35 AM 62.1 °F - 58.5 °F 88% 29.91 in 10.0 mi Calm Calm - N/A   Clear
12:55 AM 60.8 °F - 57.7 °F 90% 29.91 in 7.0 mi Calm Calm - N/A   Clear
1:15 AM 61.9 °F - 58.1 °F 87% 29.91 in 10.0 mi Calm Calm - N/A   Clear
1:35 AM 63.0 °F - 58.1 °F 84% 29.92 in 10.0 mi Calm Calm - N/A   Clear
1:55 AM 62.6 °F - 58.1 °F 85% 29.92 in 10.0 mi NE 3.5 mph - N/A   Clear
2:15 AM 62.1 °F - 57.4 °F 85% 29.93 in 10.0 mi Calm Calm - N/A   Clear
2:35 AM 62.1 °F - 57.4 °F 85% 29.93 in 10.0 mi NE 3.5 mph - N/A   Clear
2:55 AM 61.9 °F - 57.2 °F 85% 29.93 in 10.0 mi Calm Calm - N/A   Clear
3:15 AM 61.2 °F - 56.8 °F 86% 29.94 in 10.0 mi Calm Calm - N/A   Clear
3:35 AM 60.8 °F - 56.5 °F 86% 29.94 in 10.0 mi NE 3.5 mph - N/A   Clear
3:55 AM 60.3 °F - 56.3 °F 87% 29.94 in 7.0 mi NE 3.5 mph - N/A   Clear
4:15 AM 59.9 °F - 56.3 °F 88% 29.94 in 7.0 mi Calm Calm - N/A   Clear
4:35 AM 59.4 °F - 56.3 °F 90% 29.95 in 7.0 mi Calm Calm - N/A   Clear
4:55 AM 59.0 °F - 55.9 °F 90% 29.95 in 7.0 mi Calm Calm - N/A   Clear
5:15 AM 58.8 °F - 55.8 °F 90% 29.96 in 5.0 mi NE 3.5 mph - N/A   Clear
5:35 AM 59.0 °F - 55.9 °F 90% 29.96 in 5.0 mi Calm Calm - N/A   Clear
5:55 AM 58.3 °F - 55.6 °F 91% 29.97 in 5.0 mi Calm Calm - N/A   Clear
6:15 AM 57.9 °F - 55.4 °F 91% 29.97 in 4.0 mi Calm Calm - N/A   Clear
6:35 AM 57.6 °F - 55.0 °F 91% 29.98 in 4.0 mi Calm Calm - N/A   Clear
6:55 AM 56.8 °F - 54.5 °F 92% 29.99 in 3.0 mi Calm Calm - N/A   Clear
7:15 AM 57.4 °F - 55.2 °F 92% 29.99 in 2.0 mi Calm Calm - N/A   Clear
7:35 AM 58.1 °F - 55.6 °F 91% 30.00 in 2.5 mi Calm Calm - N/A   Clear
7:55 AM 59.5 °F - 56.8 °F 91% 30.01 in 3.0 mi Calm Calm - N/A   Clear
8:15 AM 61.3 °F - 57.9 °F 89% 30.02 in 4.0 mi Calm Calm - N/A   Clear
8:35 AM 63.5 °F - 59.0 °F 85% 30.02 in 5.0 mi Calm Calm - N/A   Clear
8:55 AM 65.5 °F - 60.6 °F 84% 30.02 in 7.0 mi SSE 3.5 mph - N/A   Clear
9:15 AM 66.7 °F - 61.2 °F 82% 30.02 in 10.0 mi SSE 4.6 mph - N/A   Clear
9:35 AM 68.9 °F - 62.4 °F 80% 30.02 in 10.0 mi SE 4.6 mph - N/A   Clear
9:55 AM 71.2 °F - 63.1 °F 75% 30.02 in 10.0 mi SE 4.6 mph - N/A   Clear
10:15 AM 73.6 °F - 63.5 °F 71% 30.02 in 10.0 mi SE 5.8 mph - N/A   Clear
10:35 AM 75.2 °F - 63.5 °F 67% 30.03 in 10.0 mi SSE 6.9 mph - N/A   Clear
10:55 AM 76.5 °F - 63.5 °F 64% 30.03 in 10.0 mi SSE 5.8 mph - N/A   Clear
11:15 AM 78.6 °F - 63.3 °F 59% 30.03 in 10.0 mi SSE 8.1 mph - N/A   Clear
11:35 AM 79.3 °F - 63.0 °F 57% 30.03 in 10.0 mi South 6.9 mph - N/A   Clear
11:55 AM 80.4 °F 81.7 °F 63.0 °F 55% 30.03 in 10.0 mi SSE 6.9 mph - N/A   Clear
12:15 PM 80.6 °F 81.7 °F 62.2 °F 53% 30.02 in 10.0 mi SSW 4.6 mph - N/A   Clear
12:35 PM 80.2 °F 81.3 °F 61.5 °F 53% 30.02 in 10.0 mi South 5.8 mph - N/A   Scattered Clouds
12:55 PM 81.5 °F 82.2 °F 61.3 °F 50% 30.01 in 10.0 mi SE 5.8 mph - N/A   Scattered Clouds
1:15 PM 82.9 °F 83.3 °F 60.8 °F 47% 30.01 in 10.0 mi ESE 8.1 mph - N/A   Scattered Clouds
1:35 PM 81.5 °F 81.8 °F 59.2 °F 47% 30.00 in 10.0 mi SE 5.8 mph - N/A   Clear
1:55 PM 83.3 °F 83.2 °F 59.4 °F 44% 30.00 in 10.0 mi SSE 5.8 mph - N/A   Clear
2:15 PM 83.5 °F 83.4 °F 59.7 °F 44% 29.99 in 10.0 mi SSE 6.9 mph - N/A   Clear
2:35 PM 83.1 °F 82.9 °F 58.6 °F 43% 29.99 in 10.0 mi SE 6.9 mph - N/A   Scattered Clouds
2:55 PM 84.4 °F 84.2 °F 59.9 °F 43% 29.98 in 10.0 mi ESE 8.1 mph - N/A   Mostly Cloudy
3:15 PM 84.0 °F 83.6 °F 58.8 °F 42% 29.98 in 10.0 mi ESE 8.1 mph - N/A   Scattered Clouds
3:35 PM 84.0 °F 83.6 °F 58.5 °F 42% 29.98 in 10.0 mi SSE 6.9 mph - N/A   Clear
3:55 PM 84.0 °F 83.5 °F 57.9 °F 41% 29.98 in 10.0 mi SE 6.9 mph - N/A   Scattered Clouds
4:15 PM 83.7 °F 83.1 °F 57.6 °F 41% 29.98 in 10.0 mi SE 6.9 mph - N/A   Clear
4:35 PM 83.5 °F 82.9 °F 57.7 °F 41% 29.98 in 10.0 mi SSE 8.1 mph - N/A   Clear
4:55 PM 83.1 °F 82.7 °F 57.6 °F 42% 29.98 in 10.0 mi SSE 8.1 mph - N/A   Clear
5:15 PM 82.6 °F 82.2 °F 57.4 °F 42% 29.98 in 10.0 mi SE 6.9 mph - N/A   Clear
5:35 PM 81.9 °F 81.9 °F 58.3 °F 45% 29.98 in 10.0 mi SE 5.8 mph - N/A   Clear
5:55 PM 80.8 °F 81.3 °F 59.4 °F 48% 29.99 in 10.0 mi SE 4.6 mph - N/A   Clear
6:15 PM 79.2 °F - 59.4 °F 51% 29.99 in 10.0 mi Calm Calm - N/A   Clear
6:35 PM 76.5 °F - 59.9 °F 56% 29.99 in 10.0 mi ESE 4.6 mph - N/A   Clear
6:55 PM 74.5 °F - 60.3 °F 61% 29.99 in 10.0 mi East 3.5 mph - N/A   Clear
7:15 PM 73.2 °F - 60.1 °F 63% 29.99 in 10.0 mi ESE 4.6 mph - N/A   Clear
7:35 PM 72.5 °F - 60.1 °F 65% 29.99 in 10.0 mi East 3.5 mph - N/A   Clear
7:55 PM 71.6 °F - 59.9 °F 66% 30.00 in 10.0 mi East 4.6 mph - N/A   Clear
8:15 PM 71.4 °F - 59.5 °F 66% 30.00 in 10.0 mi East 4.6 mph - N/A   Clear
8:35 PM 70.5 °F - 59.2 °F 67% 30.01 in 10.0 mi East 4.6 mph - N/A   Clear
8:55 PM 70.2 °F - 59.0 °F 68% 30.01 in 10.0 mi ESE 4.6 mph - N/A   Clear
9:15 PM 68.5 °F - 59.0 °F 72% 30.01 in 10.0 mi ESE 4.6 mph - N/A   Clear
9:35 PM 68.4 °F - 58.6 °F 71% 30.01 in 10.0 mi ESE 4.6 mph - N/A   Clear
9:55 PM 67.8 °F - 58.5 °F 72% 30.01 in 10.0 mi SE 4.6 mph - N/A   Clear
10:15 PM 66.2 °F - 58.5 °F 76% 30.02 in 10.0 mi SE 4.6 mph - N/A   Clear
10:35 PM 66.4 °F - 58.1 °F 75% 30.02 in 10.0 mi SE 4.6 mph - N/A   Clear
10:55 PM 65.3 °F - 58.1 °F 77% 30.03 in 10.0 mi SE 4.6 mph - N/A   Clear
11:15 PM 64.8 °F - 57.9 °F 78% 30.03 in 10.0 mi Calm Calm - N/A   Clear
11:35 PM 64.9 °F - 57.7 °F 77% 30.03 in 10.0 mi Calm Calm - N/A   Clear
11:55 PM 63.5 °F - 58.1 °F 83% 30.03 in 10.0 mi Calm Calm - N/A   Clear